TimeMDT,TemperatureF,Dew PointF,Humidity,Sea Level PressureIn,VisibilityMPH,Wind Direction,Wind SpeedMPH,Gust SpeedMPH,PrecipitationIn,Events,Conditions,WindDirDegrees,DateUTC
12:53 AM,46.9,21.0,36,29.92,10.0,SSW,8.1,-,N/A,,Mostly Cloudy,200,2012-10-04 06:53:00
1:53 AM,46.9,21.9,37,29.92,10.0,SSW,6.9,-,N/A,,Mostly Cloudy,200,2012-10-04 07:53:00
2:53 AM,44.1,23.0,43,29.92,10.0,Calm,Calm,-,N/A,,Partly Cloudy,0,2012-10-04 08:53:00
3:53 AM,42.1,24.1,49,29.92,10.0,Calm,Calm,-,N/A,,Partly Cloudy,0,2012-10-04 09:53:00
4:53 AM,44.1,23.0,43,29.91,10.0,South,5.8,-,N/A,,Scattered Clouds,170,2012-10-04 10:53:00
5:53 AM,43.0,25.0,49,29.92,10.0,South,3.5,-,N/A,,Mostly Cloudy,170,2012-10-04 11:53:00
6:53 AM,42.1,25.0,51,29.94,10.0,Calm,Calm,-,N/A,,Mostly Cloudy,0,2012-10-04 12:53:00
7:53 AM,41.0,26.1,55,29.96,10.0,SW,5.8,-,N/A,,Mostly Cloudy,220,2012-10-04 13:53:00
8:53 AM,46.0,28.0,50,29.96,10.0,ESE,3.5,-,N/A,,Mostly Cloudy,120,2012-10-04 14:53:00
9:53 AM,50.0,24.1,36,29.95,10.0,Calm,Calm,-,N/A,,Scattered Clouds,0,2012-10-04 15:53:00
10:53 AM,57.0,21.9,26,29.93,10.0,Variable,5.8,-,N/A,,Scattered Clouds,0,2012-10-04 16:53:00
11:53 AM,66.9,21.0,17,29.87,10.0,West,11.5,26.5,N/A,,Scattered Clouds,260,2012-10-04 17:53:00
12:53 PM,66.9,21.0,17,29.86,10.0,SW,11.5,25.3,N/A,,Scattered Clouds,230,2012-10-04 18:53:00
1:53 PM,64.9,19.9,18,29.85,10.0,SW,15.0,25.3,N/A,,Scattered Clouds,220,2012-10-04 19:53:00
2:53 PM,59.0,28.9,32,29.88,10.0,SSW,8.1,24.2,0.00,Rain,Light Rain,200,2012-10-04 20:53:00
3:53 PM,57.9,35.1,42,29.88,10.0,South,4.6,-,0.02,Rain,Light Rain,190,2012-10-04 21:53:00
4:53 PM,64.0,23.0,21,29.82,10.0,NNW,12.7,20.7,0.00,,Mostly Cloudy,340,2012-10-04 22:53:00
5:53 PM,62.1,19.0,19,29.84,10.0,North,16.1,24.2,N/A,,Scattered Clouds,350,2012-10-04 23:53:00
6:53 PM,59.0,19.0,21,29.86,10.0,North,9.2,-,N/A,,Partly Cloudy,360,2012-10-05 00:53:00
7:53 PM,59.0,19.0,21,29.86,10.0,North,8.1,-,N/A,,Partly Cloudy,350,2012-10-05 01:53:00
8:53 PM,57.9,24.1,27,29.84,10.0,NNW,9.2,-,N/A,,Scattered Clouds,340,2012-10-05 02:53:00
9:53 PM,57.0,26.1,30,29.88,10.0,NNW,13.8,28.8,0.00,Rain,Light Rain,330,2012-10-05 03:53:00
10:53 PM,52.0,34.0,50,29.88,10.0,South,18.4,24.2,0.00,,Overcast,170,2012-10-05 04:53:00
11:00 PM,50.0,35.6,58,30.17,10.0,SSE,18.4,26.5,N/A,,Overcast,160,2012-10-05 05:00:00
11:53 PM,48.0,36.0,63,29.83,10.0,ESE,16.1,26.5,N/A,,Overcast,120,2012-10-05 05:53:00